Location: Unspecified
(0.0000°N, 0.0000°E)
Time: 03:35:15
(UTC+01:00)

Iridium 12 - Visible Passes

Search period start: 21 January 2018 00:00
Search period end: 31 January 2018 00:00
Orbit: 776 x 779 km, 86.4° (Epoch: 19 January)

Date Brightness Start Highest point End Pass type
(mag) Time Alt. Az. Time Alt. Az. Time Alt. Az.
27 Jan 7.9 21:33:29 13° S 21:33:29 13° S 21:33:57 10° S visible
28 Jan 7.7 20:59:21 13° SSE 20:59:21 13° SSE 20:59:54 10° SSE visible
29 Jan 8.0 22:05:33 16° SW 22:05:33 16° SW 22:06:48 10° SSW visible
30 Jan 6.9 21:31:15 31° SSW 21:31:15 31° SSW 21:33:59 10° S visible
